User: anonymous   Login
Location: Caltech
(34.1382°N, 118.1253°W)
Time: 14:06:50
(UTC-07:00)
Language:

Cosmos 1833 - Orbit

View from above orbital plane
View from above orbital plane
View from above satellite
View from above satellite

Ground track
Ground track

The orbit data is extracted from the following two-line orbital elements,

1 17589U 87027A   16208.95627250 +.00000024 +00000-0 +38492-4 0  9993
2 17589 070.9139 148.1810 0021524 090.2768 270.0819 14.12849592514136
Epoch (UTC): 26 July 2016 22:57:01
Eccentricity: 0.0021524
inclination: 70.9139°
perigee height: 834 km
apogee height: 865 km
right ascension of ascending node: 148.1810°
argument of perigee: 90.2768°
revolutions per day: 14.12849592
mean anomaly at epoch: 270.0819°
orbit number at epoch: 51413

The dashed part of the orbit path shows where the satellite is in the earth's shadow,  

DLR